Regional Weather Roundup
Issued by NWS Sterling, VA

Home | Current Version | Previous Version | Text Only | Print | Product List | Glossary Off
Versions: 1 2 3 4 5 6 7 8 9 10 11 12 13 14 15 16 17 18 19 20 21 22 23 24 25 26 27 28 29 30 31 32 33 34 35 36 37 38 39 40 41 42 43 44 45 46 47 48 49 50

000
ASUS41 KLWX 062110
RWRLWX

REGIONAL WEATHER ROUNDUP
NATIONAL WEATHER SERVICE BALTIMORE MD/WASHINGTON DC
500 PM EDT MON JUL 06 2015

Note: "FAIR" indicates few or no clouds below 12,000 feet
with no significant weather and/or obstructions to visibility.
 TC=TEMPERATURE CELSIUS

 * =Non NWS site. Station does not report precipitation (e.g. rain,
    snow, etc.), thunder, or fog.

DCZ001-MDZ009-015-VAZ040>042-051-053>054-062200-
WASHINGTON METRO

CITY           SKY/WX    TMP DP  RH WIND       PRES   REMARKS
WASHINGTON NAT PTSUNNY   88  71  57 S12       30.03F HX  94
DULLES         PTSUNNY   82  70  66 S8        30.03F
ANDREWS AFB    MOSUNNY   86  70  60 VRB7      30.03F HX  90
FT BELVOIR     LGT RAIN  80  73  79 S5        30.03S
QUANTICO       LGT RAIN  84  70  62 SW13      29.98F
COLLEGE PARK*  MOSUNNY   86  68  54 S5        30.03S
LEESBURG*      MOSUNNY   81  77  89 S14       30.06S
MANASSAS*      CLOUDY   N/A N/A N/A S6        30.03F
GAITHERSBURG*  PTSUNNY   79  72  78 CALM      30.08F

$$

MDZ006>007-011-014-062200-
BALTIMORE METRO

CITY           SKY/WX    TMP DP  RH WIND       PRES   REMARKS
BWI AIRPORT    PTSUNNY   84  71  65 S7        30.03F
MD SCIENCE CTR   N/A     85  70  60 MISG      30.04F
MARTIN STATE   MOSUNNY   86  77  74 SE9       30.06F HX  97
ANNAPOLIS      SUNNY     84  71  65 S10       30.04F
FORT MEADE*    MOSUNNY   82  72  69 SE7       30.06S

$$

MDZ012-015-019>023-062200-
MARYLAND EASTERN SHORE

CITY           SKY/WX    TMP DP  RH WIND       PRES   REMARKS
OCEAN CITY     PTSUNNY   81  75  82 S8        30.09S
SALISBURY      MOSUNNY   84  75  74 S13       30.07S HX  92
BAY BRIDGE AP*   N/A     88  68  51 SE10      30.04F HX  91
CAMBRIDGE*     SUNNY     86  68  54 S8        30.05F
EASTON*        MOSUNNY   90  72  55 S10G18    30.09F HX  96

$$

MDZ017>025-062200-
SOUTHERN MARYLAND

CITY           SKY/WX    TMP DP  RH WIND       PRES   REMARKS
PATUXENT RIVER MOSUNNY   83  75  77 SE16G23   30.05F HX  90
ST INIGOES     NOT AVBL
LEONARDTOWN*   MOSUNNY   84  72  65 SE9       30.06F

$$

MDZ003>005-062200-
NORTH CENTRAL MARYLAND

CITY           SKY/WX    TMP DP  RH WIND       PRES   REMARKS
FREDERICK*     PTSUNNY   81  77  89 VRB3      30.07S
HAGERSTOWN APT CLOUDY    83  67  58 S12       30.04S
WESTMINSTER*   MOSUNNY   82  75  78 SE10      30.06F

$$

MDZ501>502-062200-
WESTERN MARYLAND

CITY           SKY/WX    TMP DP  RH WIND       PRES   REMARKS
OAKLAND*       PTSUNNY   73 N/A N/A S7        30.12F
CUMBERLAND*    PTSUNNY   75  72  88 CALM      30.08F

$$

VAZ025>031-062200-
SHENANDOAH VALLEY

CITY           SKY/WX    TMP DP  RH WIND       PRES   REMARKS
WINCHESTER*    PTSUNNY   82  70  65 S10       30.04F
FRONT ROYAL*   FAIR      82  70  65 S3        30.03S
LURAY*         MOCLDY    86  70  58 SW12      30.05S HX  90
NEW MARKET*    MOCLDY    81  68  65 SW7       30.03S
STAUNTON*      PTSUNNY   80  68  67 S5        30.09S
WAYNESBORO*    MOCLDY    76  70  83 NW6       30.09S

$$

WVZ021-048>050-054>055-062200-
EASTERN WEST VIRGINIA PANHANDLE

CITY           SKY/WX    TMP DP  RH WIND       PRES   REMARKS
MARTINSBURG    MOSUNNY   83  69  62 S7        30.05S
PETERSBURG*    PTSUNNY   79  67  68 CALM      30.05F

$$

VAZ036>039-050-062200-
CENTRAL FOOTHILLS

CITY           SKY/WX    TMP DP  RH WIND       PRES   REMARKS
CHARLOTTESVILL MOSUNNY   78  68  71 SW7       30.06R
CULPEPER*      PTSUNNY   84  71  63 SW6       30.04S
ORANGE*        LGT RAIN  79  72  78 SE7       30.06S
GORDONSVILLE*  MOCLDY    79  72  78 SW8       30.05R
WARRENTON*     FAIR      86  74  68 SW5       30.03F HX  93

$$

VAZ055>057-062200-
NORTH AND CENTRAL PIEDMONT

CITY           SKY/WX    TMP DP  RH WIND       PRES   REMARKS
FREDERICKSBRG* PTSUNNY   86  72  61 SW8       30.03S HX  92
STAFFORD*      MOSUNNY   83  69  62 S9        30.08S

$$

NCZ024-NYZ072-PAZ021-071-VAZ022-071-062200-
OTHER REGIONAL OBSERVATIONS

CITY           SKY/WX    TMP DP  RH WIND       PRES   REMARKS
NEW YORK CITY  CLOUDY    79  66  64 VRB6      30.15F
PHILADELPHIA   PTSUNNY   86  69  56 S5        30.07F HX  90
PITTSBURGH     MOSUNNY   80  67  64 SE3       30.03F
ROANOKE        PTSUNNY   81  68  64 NW3       30.09S
RICHMOND       TSTM      77  71  82 W17G26    30.06R
RALEIGH        MOSUNNY   89  68  49 SW10G16   30.07F HX  93

$$

ANZ530>537-062200-
MARINE OBSERVATIONS

STATION/POSITION TIME  TEMP    WIND        PRES
                       AIR SEA DIR/SP/G
                 (UTC) (F)     (DEG/KT/KT) (MB)
THOMAS PT LIGHT  NOT AVBL
BALT KEY BRIDGE  2000   81     140/ 11/ 13 1017.4F
COVE POINT       2000   79     170/ 13/ 14 1018.6F
LEWISETTA        2000   85 82  200/  8/ 10 1017.4F
SOLOMONS ISLAND  2000      81                N/A
PINEY POINT      2000          150/ 16/ 18   N/A

$$




USA.gov is the U.S. government's official web portal to all federal, state and local government web resources and services.